This demonstration page uses our WeatherBlox Daily Observations layout. Learn more.

Left ArrowRight Arrow

39.29038, -76.61219

Hourly Observations for July 11, 2021

Temp ( °F °C ) Dew Point ( °F °C ) Humidity (%) Winds ( mph kmh ) Pressure ( in mb ) Visibility ( mi km ) Precip ( " mm )
2:54 am 02:54 Mostly Cloudy 73 22.8 66 18.9 79 79 N N/A 30.03 1017 10 16 N/A
3:54 am 03:54 Mostly Cloudy 75 23.9 65 18.3 71 71 N N/A 30.02 1017 10 16 N/A
4:54 am 04:54 Mostly Cloudy 76 24.4 65 18.3 69 69 N N/A 30.03 1017 10 16 N/A
5:54 am 05:54 Mostly Cloudy 75 23.9 65 18.3 71 71 SSW 3 6 30.04 1017 10 16 N/A
6:54 am 06:54 Cloudy 75 23.9 67 19.4 76 76 N N/A 30.06 1018 10 16 N/A
7:54 am 07:54 Mostly Cloudy 76 24.4 67 19.4 74 74 N N/A 30.06 1018 10 16 N/A
8:54 am 08:54 Cloudy 78 25.6 68 20 71 71 S 5 7 30.06 1018 10 16 N/A
9:54 am 09:54 Mostly Cloudy 81 27.2 69 20.6 67 67 S 9 15 30.06 1018 10 16 N/A
10:54 am 10:54 Mostly Cloudy 85 29.4 71 21.7 63 63 SE 9 15 30.05 1018 10 16 N/A
11:54 am 11:54 Mostly Cloudy 85 29.4 71 21.7 63 63 SSE 8 13 30.05 1018 10 16 N/A
12:54 pm 12:54 Mostly Cloudy 88 31.1 72 22.2 59 59 S 8 13 30.03 1017 10 16 N/A
1:54 pm 13:54 Partly Cloudy 89 31.7 72 22.2 57 57 ESE 9 15 30.01 1016 10 16 N/A
2:54 pm 14:54 Mostly Cloudy 89 31.7 73 22.8 59 59 SE 13 20 29.99 1016 10 16 N/A
3:54 pm 15:54 Mostly Cloudy 89 31.7 74 23.3 61 61 SSE 14 22 29.98 1015 10 16 N/A
4:54 pm 16:54 Partly Cloudy 87 30.6 74 23.3 65 65 SSE 10 17 29.97 1015 10 16 N/A
5:54 pm 17:54 Partly Cloudy 87 30.6 73 22.8 63 63 SSE 12 19 29.96 1014 10 16 N/A
6:54 pm 18:54 Partly Cloudy 86 30 73 22.8 65 65 SE 9 15 29.95 1014 10 16 N/A
7:54 pm 19:54 Mostly Sunny 84 28.9 75 23.9 74 74 SSE 8 13 29.95 1014 10 16 N/A
8:54 pm 20:54 Mostly Clear 83 28.3 75 23.9 77 77 VRB 7 11 29.96 1014 10 16 N/A
9:54 pm 21:54 Partly Cloudy 82 27.8 75 23.9 79 79 SSE 6 9 29.98 1015 10 16 N/A
10:54 pm 22:54 Partly Cloudy 81 27.2 75 23.9 82 82 VRB 3 6 29.99 1016 10 16 N/A
11:54 pm 23:54 Partly Cloudy 81 27.2 75 23.9 82 82 S 5 7 30.01 1016 10 16 N/A

Powered by AerisWeather